Tracking 19903 objects as of 16-Oct-2019
HD Live streaming from Space Station
objects crossing your sky now

DELTA R/B(1)

Track DELTA R/B(1) now!
10-day predictions


NORAD ID: 25619
Int'l Code: 1999-003B
Perigee: 293.9 km
Apogee: 4,253.1 km
Inclination: 22.5 °
Period: 133.3 minutes
Semi major axis: 8644 km
RCS: 10.5824 m2 (large)
Launch date: February 7, 1999
Source: United States (US)
Launch site: AIR FORCE EASTERN TEST RANGE (AFETR)

Note: This is a ROCKET BODY
aabbcc
Your satellite tracking list
Your tracking list is empty




NASA's NSSDC Master Catalog

Two Line Element Set (TLE):
1 25619U 99003B   19288.25162790 +.00006469 -35829-5 +20077-3 0  9991
2 25619 022.4559 329.9827 2289982 165.2375 202.8143 10.80172383749408
Source of the keplerian elements: AFSPC